Home   Weather   Stade   Past weeks

Flag for Germany Past Weather in Stade, Lower Saxony, Germany — Yesterday and Last 2 Weeks

Now
45 °F

Light rain. Broken clouds.


Feels Like: 38 °F
Forecast: 35 / 46 °F
Wind: 13 mph from West

Location: Hamburg-Finkenwerder

Current Time: Apr 24, 2017 at 9:13:54 pm

Latest Report: Apr 24, 2017 at 7:20 pm


Visibility: N/A

Pressure: 29.77 "Hg

Humidity: 87%

Dew Point: 41 °F

Location of StadeLocation

Past Weather in Stade — Graph

°F

Stade Temperature Yesterday

High & Low Weather Summary for the Past Weeks

 TemperatureHumidityPressure
High57 °F (Apr 21, 12:50 pm)94% (Apr 12, 1:50 pm)30.60 "Hg (Apr 12, 1:50 pm)
Low30 °F (Apr 19, 5:50 am)40% (Apr 19, 5:20 pm)29.71 "Hg (Apr 15, 9:20 am)
Average47 °F73%30.11 "Hg
* Reported Apr 10 7:50 am — Apr 24 7:20 pm, Stade, Weather by CustomWeather, © 2017

Note: Actual official high and low records may vary slightly from our data, if they occured in-between our weather recording intervals... More about our weather records

Advertising

Stade Weather History for the Previous 24 Hours

Scroll right to see more
 ConditionsComfort  
Time TempWeatherWind HumidityBarometerVisibility
7:20 pm
Mon, Apr 24
45 °FLight rain. Broken clouds.13 mph87%29.77 "HgN/A
6:50 pm46 °FLight rain. Partly sunny.14 mph87%29.77 "HgN/A
6:20 pm46 °FSprinkles. Broken clouds.13 mph93%29.77 "HgN/A
5:50 pm46 °FSprinkles. Broken clouds.16 mph93%29.77 "Hg5 mi
5:20 pm50 °FScattered showers. Partly sunny.15 mph82%29.74 "HgN/A
4:50 pm50 °FLight rain. Partly sunny.17 mph76%29.77 "HgN/A
4:20 pm50 °FLight rain. Broken clouds.22 mph82%29.77 "HgN/A
3:50 pm52 °FScattered showers. Broken clouds.17 mph72%29.77 "HgN/A
3:20 pm52 °FPartly sunny.24 mph67%29.77 "HgN/A
2:50 pm52 °FPartly sunny.24 mph67%29.80 "HgN/A
2:20 pm52 °FBroken clouds.22 mph67%29.80 "HgN/A
1:50 pm52 °FBroken clouds.23 mph67%29.80 "HgN/A
1:20 pm52 °FBroken clouds.23 mph67%29.83 "HgN/A
12:50 pm50 °FPartly sunny.23 mph67%29.83 "HgN/A
12:20 pm52 °FPartly sunny.26 mph62%29.83 "HgN/A
11:50 am52 °FBroken clouds.22 mph62%29.83 "HgN/A
11:20 am48 °FPartly sunny.21 mph66%29.86 "HgN/A
10:50 am48 °FSunny.20 mph66%29.86 "Hg10 mi
10:20 am45 °FPartly sunny.18 mph71%29.89 "HgN/A
9:50 am45 °FSunny.17 mph71%29.89 "Hg10 mi
9:20 am45 °FPartly sunny.15 mph66%29.89 "HgN/A
8:50 am43 °FPartly sunny.14 mph71%29.92 "HgN/A
8:20 am43 °FSunny.15 mph71%29.92 "Hg10 mi
7:50 am41 °FPartly sunny.15 mph76%29.95 "HgN/A
7:20 am39 °FPartly sunny.14 mph81%29.95 "HgN/A
6:50 am39 °FSunny.14 mph81%29.98 "Hg10 mi
6:20 am39 °FPartly sunny.12 mph81%29.98 "HgN/A
5:50 am39 °FPassing clouds.12 mph81%30.01 "HgN/A
Weather by CustomWeather, © 2017

See weather overviewHow to use our weather pages